Regional Weather Roundup
Issued by NWS Wakefield, VA

Home | Current Version | Previous Version | Text Only | Print | Product List | Glossary On
Versions: 1 2 3 4 5 6 7 8 9 10 11 12 13 14 15 16 17 18 19 20 21 22 23 24 25 26 27 28 29 30 31 32 33 34 35 36 37 38 39 40 41 42 43 44 45 46 47 48 49 50
000
ASUS41 KAKQ 230415
RWRAKQ

REGIONAL WEATHER ROUNDUP
NATIONAL WEATHER SERVICE WAKEFIELD VA
1100 PM EST SUN JAN 22 2017

Note: "fair" indicates few or no clouds below 12,000 feet with no
significant weather and/or obstructions to visibility. * = Denotes
station may not report precipitation (e.g., rain,snow,etc.),
thunder or fog.

VAZ042-051-052>054-056-230500-
NORTHERN VIRGINIA

CITY           SKY/WX    TMP DP  RH WIND       PRES   REMARKS
WASH NATIONAL  LGT RAIN  50  49  96 NE10      29.64R FOG
DULLES         LGT RAIN  50  48  93 E10       29.62S
FORT BELVOIR   LGT RAIN  50  48  94 VRB5      29.61S FOG
QUANTICO       LGT RAIN  50  50 100 NE12      29.61S VSB 1
FREDERICKSBRG* CLOUDY    50  50 100 NE6       29.59F FOG
STAFFORD*      DRIZZLE   49  49 100 NE6       29.64F
WARRENTON      DRIZZLE   50  48  91 NE5       29.60F
CULPEPER*      DRIZZLE   50  50 100 N3        29.61F
MANASSAS*      NOT AVBL
LEESBURG*      RAIN      48  48 100 NE5       29.64R
WINCHESTER     RAIN      45  43  93 NE5       29.62R
FRONT ROYAL*   CLOUDY    45  45 100 N5        29.60F
LURAY*         DRIZZLE   46  46 100 N10       29.59F
$$

VAZ048-049-060>072-079>083-230500-
CENTRAL AND SOUTH CENTRAL VIRGINIA

CITY           SKY/WX    TMP DP  RH WIND       PRES   REMARKS
RICHMOND       CLOUDY    49  49 100 NE5       29.57S FOG
CHESTERFIELD*  CLOUDY    50  34  53 CALM      29.57F
PETERSBURG*    CLOUDY    48  48 100 NE7       29.56F
HANOVER        CLOUDY    49  47  93 VRB3      29.58F FOG
TAPPAHANNOCK*  CLOUDY    50  50 100 N5        29.57F FOG
QUINTON*       CLOUDY    48  48 100 NE5       29.54F FOG
CHARLOTTSVILLE CLOUDY    50  49  96 NE8       29.59R FOG
GORDONSVILLE*  CLOUDY    48  48 100 NE6       29.59R FOG
ORANGE*        DRIZZLE   50  50 100 CALM      29.61S
LOUISA*        CLOUDY    52  52 100 NE7       29.57S FOG
BUMPASS*       CLOUDY    48  48 100 CALM      29.58S
FARMVILLE*     LGT RAIN  50  50 100 NE8       29.55F
CREWE*         CLOUDY    49  49 100 NE3       29.55F
FORT PICKETT*  CLOUDY   N/A N/A N/A NE6       29.54F
CHASE CITY*    CLOUDY    50  48  95 NE6       29.52F
CLARKSVILLE*   CLOUDY    50  50 100 E7        29.52S
SOUTH HILL*    CLOUDY    49  49 100 CALM      29.61R
LAWRENCEVILLE* CLOUDY    49  48  97 E5        29.54R
EMPORIA*       DRIZZLE   50  50 100 NE3       29.57R
$$

VAZ088>098-230500-
SOUTHEAST VIRGINIA

CITY           SKY/WX    TMP DP  RH WIND       PRES   REMARKS
NORFOLK        FOG       47  46  97 N6        29.54F VSB 3/4
VIRGINIA BEACH FOG       48  46  93 N6        29.53F VSB 3/4
NORFOLK NAVAL  DRZL/FOG  48  46  93 N9        29.55F VSB 1/4
WEST POINT*    CLOUDY    49  49  99 NE5       29.57S
SALUDA*        CLOUDY    49  49 100 CALM      29.56F
NEWPORT NEWS   CLOUDY    50  49  96 NE3       29.55F FOG
LANGLEY AFB    CLOUDY    50  50 100 NE5       29.53S FOG
FORT EUSTIS    CLOUDY    50  48  94 CALM      29.52F FOG
WILLIAMSBURG*  CLOUDY    52  52 100 CALM      29.56S
HR EXEC AP*    CLOUDY    50  46  87 NE6       29.53S VSB 1
FRANKLIN*      CLOUDY    49  48  95 SE3       29.56R
US460-WAKEFLD  CLOUDY    49  49 100 VRB5      29.54F FOG
$$

VAZ020-022-025-037-045-230500-
WEST CENTRAL AND SOUTHWEST VIRGINIA

CITY           SKY/WX    TMP DP  RH WIND       PRES   REMARKS
STAUNTON*      DRIZZLE   46  45  99 N5        29.60R
WAYNESBORO*    CLOUDY    46  45  96 NW5       29.58R
HOT SPRINGS VA LGT RAIN  39  39 100 E13G18    29.49S VSB 1/4
LYNCHBURG      LGT RAIN  49  48  97 NE10      29.54F FOG
DANVILLE       LGT RAIN  50  50 100 NE14      29.46F
SOUTH BOSTON*  CLOUDY    51  49  95 NE6       29.51F
MARTINSVILLE   LGT RAIN  50  48  95 NE9       29.47F
ROANOKE        LGT RAIN  50  48  93 E8        29.53F
BLACKSBURG     LGT RAIN  48  47  98 E15G25    29.52R
DUBLIN*        LGT RAIN  49  49 100 E17       29.46F
MARION*        LGT RAIN  49  48  97 E15G21    29.40F
HILLSVILLE*    LGT RAIN  46  46 100 E8        29.40F
RICHLANDS*     CLOUDY    51  46  83 E15G30    29.32F
WISE*          LGT RAIN  52  46  82 E7        29.32S
ABINGDON*      CLOUDY    55  49  82 E22       29.29F
$$

MDZ021>025-VAZ099-100-230500-
SOUTHERN MARYLAND AND THE DELMARVA PENINSULA

CITY           SKY/WX    TMP DP  RH WIND       PRES   REMARKS
PATUXENT RIVER FOG       48  48 100 NE10      29.58F VSB 3/4
BAY BRIDGE APT CLOUDY    50  48  93 E8        29.65R FOG
LEONARDTOWN    CLOUDY    46  46 100 NE3       29.60F
DOVER          CLOUDY    48  48 100 NE10      29.65S
GEORGETOWN     CLOUDY    49  48  97 NE21G31   29.63S FOG
EASTON         CLOUDY    51  49  93 E9G20     29.67R FOG
CAMBRIDGE      CLOUDY    50  48  93 NE13G18   29.61S
SALISBURY      LGT RAIN  50  49  96 NE15      29.61R FOG
OCEAN CITY     LGT RAIN  48  48 100 NE14G22   29.61R FOG
WALLOPS ISLAND LGT RAIN  50  50 100 NE26G32   29.55F FOG
ACCOMACK*      CLOUDY    53  52  96 NE16G25   29.54F FOG
$$

NCZ012>017-030>032-230500-
NORTH CENTRAL AND EASTERN NORTH CAROLINA

CITY           SKY/WX    TMP DP  RH WIND       PRES   REMARKS
ROANOKE RAPIDS LGT RAIN  50  50 100 NE6       29.54R
RALEIGH        LGT RAIN  53  52  96 E10       29.45F
ELIZABETH CITY CLOUDY    50  50 100 NE5       29.54R
AHOSKIE*       LGT RAIN  50  49  98 CALM      29.55F
EDENTON*       CLOUDY    53  52  96 CALM      29.53F FOG
CURRITUCK*     CLOUDY    50  50 100 N8        29.54F FOG
KILL DEVIL HLS NOT AVBL
MANTEO         CLOUDY    48  48 100 NE10      29.52F
CAPE HATTERAS  CLOUDY    51  49  92 E8        29.50F FOG
TARBORO*       NOT AVBL
GOLDSBORO      LGT RAIN  57  57 100 E14       29.44F
WASHINGTON     LGT RAIN  54  53  99 E8          N/A  VSB 1
GREENVILLE     LGT RAIN  54  54 100 NE7       29.54F
NEW BERN       RAIN      58  57  97 NE6       29.51F FOG
WILMINGTON     CLOUDY    59  59 100 E9        29.41F
$$

VAZ048-230500-
ELSEWHERE

CITY           SKY/WX    TMP DP  RH WIND       PRES   REMARKS
HARRISBURG PA  DRIZZLE   50  49  96 E12       29.68S FOG
BALTIMORE      CLOUDY    48  48 100 NE15      29.65S FOG
ANNAPOLIS      CLOUDY    50  48  93 NE9       29.65R FOG
ANDREWS AFB    CLOUDY    48  48 100 NE12      29.61S FOG
PHILADELPHIA   CLOUDY    47  43  86 E15G24    29.73R
HENDERSON NC   LGT RAIN  48  47  97 NE10      29.51F
GREENSBORO     RAIN      52  52 100 E18G25    29.40F FOG
ROCKY MOUNT    CLOUDY    52  52 100 NE8       29.50F
$$

VAZ100-230500-
MARINE

STATION/POSITION TIME  TEMP    WIND        PRES    WAVE   SWELL
                       AIR SEA DIR/SP/G            HT/PER HT/PER
                 (UTC) (F)     (DEG/KT/KT) (MB)    (FT/S) (FT/S)
CAPE MAY NJ      0348   48 42   50/ 11/ 22 1003.5R
LEWES DE         0342   46 43   60/ 24/ 28 1003.4R
OCEAN-CITY-INLET 0342   47 44   40/  8/ 14 1002.5F
WACHAPREAGUE VA  0348   51 50   40/ 19/ 25  999.8F
THOMAS POINT MD  0400   47 40   30/ 10/ 11   N/A
GOOSES REEF MD   0350   44     360/  6/  6 1004.2R
COVE POINT MD    0348   48      60/  9/ 12 1003.2R
SOLOMONS ISLAND  0342   49 42   40/  7/  8   N/A
BISHOPS HEAD MD  0348   49 45   50/ 10/ 12 1002.3R
PINEY POINT MD   0336           70/  7/  9   N/A
POTOMAC MD       0350   48      40/ 14/ 17 1000.6F
CAMBRIDGE MD     0348   49 42   60/ 12/ 14 1002.6R
LEWISETTA VA     0348   47 44   50/  7/ 11 1001.0F
RAPPAHANNOCK LGT 0336           10/ 16/ 16 1000.8F
STINGRAY PT      0350   44      20/ 12/ 14 1001.1F
YORK RVR RNG VA  0348   47      20/ 12/ 13  999.4F
YORKTOWN VA      0348   49 45   40/  9/ 11  999.8F
JAMESTOWN VA     0350   49      60/  2/  4   N/A
DOMINION TERM VA 0348   49      60/  3/  4 1000.4F
CHES BAY BRIDGE  0348   45 44   10/  6/  7 1000.0F
CAPE HENRY VA    0348   45     330/  6/  6   N/A
WILLOUBY STN VA  0348   48      20/  6/  7 1001.4F
S CRANEY ISL VA  0348   48      20/  6/  7 1000.2F
CAPE HENRY BUOY  0342      48                N/A     3/13   2/13
OFFSHORE WE BUOY 0351      48                N/A     4/13   2/13
64NM E OF VA BCH 0350   49 56  310/  6/  8  999.8R   4/13   3/13
DUCK PIER NC     0348   47 46  360/  6/  7 1000.2R
44100 DUCK FRF   0335      48                N/A     4/12   2/12
44056 DUCK FRF   0330      47                N/A     3/12   2/12
OREGON INLET NC  0336   47 50   10/  6/  9  999.9F
HATTERAS NC      0336   51 55   60/  7/ 10  999.0F
DIAMOND SHLS NC  0350   63 71   50/ 12/ 14  998.8F   4/13   3/13
CAPE LOOKOUT NC  0400   64      40/  9/ 10  998.1R
$$



USA.gov is the U.S. government's official web portal to all federal, state and local government web resources and services.